Showing default

COSMOS 2600, 67674

Orbit data source: Space-Track

COSMOS 2600, 67674 is a payload satellite owned by MO RF (CIS) in SSO that was launched on Thu, 05 Feb 2026 UTC via a SOYUZ-2-1B launch vehicle from the Plesetsk Missile And Space Complex (PKMTR). Payload-class satellites include a variety of spacecraft equipped with specific instruments for various scientific and technological missions. These include communications satellites like Starlink; space stations such as the ISS; scientific satellites like the Hubble; Earth observation satellites from companies like Planet Labs, Umbra, and HawkEye 360; GPS; miniature CubeSats for education and research; and military/defense satellites.

Loading next visibility...
Identifier
67674, 2026-023A
Orbit
SSO
Country
Flag of CISCIS
Related business
Manufacturer
VNIIEM
Mission
Operational Defense Imaging
Bus & Motor
EMKA, Unknown motor
Mass
520 kg wet, ~500 kg dry
Launch date (UTC)
2026-02-05 (4 months ago)
Launch vehicle
SOYUZ-2-1B
Launch site
Plesetsk Missile And Space Complex (PKMTR)
Object type
Payload
Rocket body
Debris
Shape & HBR
Cyl + 2 Pan, 2.2 m
Radar Cross Section
3.727 m², Large (>1 m²)

Expand to show TLE details & history
Last TLE update: 16 hours ago

TLE from 16 hours ago
0 COSMOS 2600
1 67674U 26023A   26171.19759784  .00055519  00000-0  26165-3 0  9998
2 67674  96.7025 243.6482 0003910 180.3733 179.7536 15.82941698 21260
Epoch: 2026-06-20T04:44Z
TLE epoch observation values (Epoch: 2026-06-20T04:44:32.453Z)
Latitude
0.00001°
Longitude
-95.9027°
Altitude
327.942 km
Speed
7.71 km/s
True Right ascension
16h 14m 35s
True Declination
0° 00' 00"
Sunlit
Object was in full shadow at epoch
Visualization orbit readout
Latitude
Unknown
Longitude
Unknown
Altitude
Unknown
Speed
Unknown
Apparent Right ascension
Unknown
Apparent Declination
Unknown
Sunlit
N/A
Visualization observer readout
Local Sidereal Time
07:20:36
Azimuth
Unknown
Elevation
Unknown
Doppler factor
Unknown
Orbital elements
Apogee altitude
321.598 km
Perigee altitude
316.361 km
Semi-major axis
6,697.117 km
Eccentricity
0.00039
Inclination
96.7025°
RAAN
243.6482°
Arg. of periapsis
180.3733°
True anomaly
179.75379°
Mean anomaly
179.7536°
Eccentric anomaly
179.7537°
Mean motion
3.96015 °/min
Orbital period
90.91 mins
BSTAR
0.00026165
Loading maneuver chart data...
Computing Atmospheric mass density...
Loading historical data...
Loading historical data...
Loading historical data...
Loading historical data...
Loading historical data...
Loading historical data...
Loading historical data...

Documentation

Showing up to 5 results
|